TimeAKDT,TemperatureF,Dew PointF,Humidity,Sea Level PressureIn,VisibilityMPH,Wind Direction,Wind SpeedMPH,Gust SpeedMPH,PrecipitationIn,Events,Conditions,WindDirDegrees,DateUTC
12:45 AM,51.8,46.4,82,29.75,10.0,East,8.1,-,N/A,,Overcast,90,2013-09-18 08:45:00
12:54 AM,51.1,48.0,89,29.76,10.0,East,6.9,-,N/A,,Overcast,90,2013-09-18 08:54:00
1:19 AM,50.0,46.4,87,29.75,7.0,East,6.9,-,0.00,Rain,Light Rain,80,2013-09-18 09:19:00
1:54 AM,50.0,46.0,86,29.77,10.0,East,4.6,-,0.00,,Overcast,90,2013-09-18 09:54:00
2:05 AM,50.0,44.6,82,29.76,10.0,East,4.6,-,N/A,,Overcast,100,2013-09-18 10:05:00
2:54 AM,50.0,44.1,80,29.76,10.0,East,8.1,-,N/A,,Overcast,90,2013-09-18 10:54:00
3:10 AM,50.0,44.6,82,29.75,10.0,East,6.9,-,N/A,,Overcast,90,2013-09-18 11:10:00
3:21 AM,51.8,44.6,76,29.75,10.0,East,5.8,-,N/A,,Overcast,80,2013-09-18 11:21:00
3:54 AM,48.9,45.0,86,29.77,5.0,East,8.1,-,0.01,Rain,Light Rain,90,2013-09-18 11:54:00
4:07 AM,48.2,46.4,93,29.76,6.0,East,6.9,-,0.00,Rain,Light Rain,90,2013-09-18 12:07:00
4:54 AM,48.9,46.0,90,29.77,10.0,East,8.1,-,0.04,Rain,Light Rain,90,2013-09-18 12:54:00
5:54 AM,48.9,46.0,90,29.77,10.0,ENE,8.1,-,0.01,,Overcast,70,2013-09-18 13:54:00
6:54 AM,48.9,46.0,90,29.77,6.0,East,9.2,-,0.01,,Overcast,80,2013-09-18 14:54:00
7:54 AM,48.9,46.0,90,29.78,10.0,East,6.9,-,0.01,,Overcast,90,2013-09-18 15:54:00
8:03 AM,48.2,46.4,93,29.77,10.0,East,10.4,16.1,0.01,,Overcast,80,2013-09-18 16:03:00
8:54 AM,50.0,46.0,86,29.78,10.0,East,6.9,16.1,0.01,,Overcast,90,2013-09-18 16:54:00
9:54 AM,50.0,46.0,86,29.78,8.0,East,9.2,-,0.01,,Overcast,90,2013-09-18 17:54:00
10:54 AM,50.0,46.9,89,29.79,10.0,East,5.8,-,0.01,,Overcast,90,2013-09-18 18:54:00
11:54 AM,50.0,48.0,93,29.80,10.0,East,5.8,-,0.01,Rain,Light Rain,90,2013-09-18 19:54:00
12:13 PM,50.0,48.2,94,29.79,10.0,East,8.1,-,0.00,,Overcast,90,2013-09-18 20:13:00
12:54 PM,50.0,48.0,93,29.79,10.0,East,11.5,-,0.01,,Overcast,80,2013-09-18 20:54:00
1:12 PM,51.8,48.2,88,29.79,10.0,Variable,5.8,-,0.00,,Overcast,0,2013-09-18 21:12:00
1:54 PM,51.1,46.9,86,29.81,10.0,ESE,8.1,-,0.00,,Overcast,120,2013-09-18 21:54:00
2:13 PM,51.8,46.4,82,29.80,10.0,Variable,5.8,-,N/A,,Overcast,0,2013-09-18 22:13:00
2:54 PM,50.0,46.0,86,29.81,10.0,ENE,6.9,-,N/A,,Overcast,70,2013-09-18 22:54:00
3:20 PM,51.8,46.4,82,29.80,10.0,ENE,6.9,-,0.00,Rain,Light Rain,70,2013-09-18 23:20:00
3:27 PM,50.0,46.4,87,29.80,10.0,Variable,5.8,-,0.00,,Overcast,0,2013-09-18 23:27:00
3:54 PM,51.1,46.0,83,29.80,10.0,East,8.1,-,0.00,,Overcast,80,2013-09-18 23:54:00
4:20 PM,50.0,44.6,82,29.79,10.0,East,8.1,-,0.01,,Overcast,80,2013-09-19 00:20:00
4:54 PM,50.0,46.0,86,29.80,10.0,ENE,8.1,-,0.01,,Overcast,60,2013-09-19 00:54:00
5:09 PM,50.0,44.6,82,29.79,10.0,ENE,9.2,-,0.00,,Overcast,60,2013-09-19 01:09:00
5:54 PM,50.0,46.0,86,29.80,10.0,East,5.8,-,0.00,,Overcast,100,2013-09-19 01:54:00
6:54 PM,50.0,45.0,83,29.80,10.0,East,6.9,-,N/A,,Overcast,90,2013-09-19 02:54:00
7:54 PM,48.9,44.1,83,29.80,10.0,East,5.8,-,N/A,,Overcast,80,2013-09-19 03:54:00
8:44 PM,48.2,44.6,87,29.78,10.0,East,5.8,-,0.00,Rain,Light Rain,80,2013-09-19 04:44:00
8:54 PM,48.9,44.1,83,29.79,10.0,ENE,4.6,-,0.00,Rain,Light Rain,70,2013-09-19 04:54:00
9:12 PM,48.2,44.6,87,29.78,10.0,East,4.6,-,0.01,Rain,Light Rain,90,2013-09-19 05:12:00
9:54 PM,46.9,44.1,90,29.79,10.0,SE,3.5,-,0.01,Rain,Light Rain,130,2013-09-19 05:54:00
10:54 PM,46.9,44.1,90,29.78,10.0,SE,3.5,-,0.00,Rain,Light Rain,130,2013-09-19 06:54:00
11:20 PM,46.4,44.6,93,29.76,10.0,Calm,Calm,-,0.01,Rain,Light Rain,0,2013-09-19 07:20:00
11:54 PM,46.9,45.0,93,29.75,10.0,Calm,Calm,-,0.01,,Overcast,0,2013-09-19 07:54:00